Location: Bonningues
(50.7927°N, 2.0150°E)
Time: 16:34:32
(UTC+00:00)

Tsikada Rocket - Pass Details

Date: 08 August 2020
Orbit: 957 x 1010 km, 82.9° (Epoch: 24 September)

Event Time Altitude Azimuth Distance (km) Brightness Sun altitude
Rises 23:28:59 0° 347° (NNW) 3,744 8.5 -23.1°
Reaches altitude 10° 23:31:36 10° 342° (NNW) 2,784 7.5 -23.2°
Maximum altitude 23:37:44 51° 269° (W) 1,237 4.5 -23.3°
Enters shadow 23:39:49 37° 220° (SW) 1,496 4.6 -23.3°
